STARLINK-3857, 52494

Orbit data source: Space-Track

STARLINK-3857, 52494 is a payload satellite owned by SpaceX/Seattle (US) in LEO that was launched on Fri, 06 May 2022 UTC via an FALCON 9 launch vehicle from the Air Force Eastern Test Range (AFETR). Payload-class satellites include a variety of spacecraft equipped with specific instruments for various scientific and technological missions. These include communications satellites like Starlink; space stations such as the ISS; scientific satellites like the Hubble; Earth observation satellites from companies like Planet Labs, Umbra, and HawkEye 360; GPS; miniature CubeSats for education and research; and military/defense satellites.

Loading next visibility...
Identifier
52494, 2022-049AV
Orbit
LEO
Country
Flag of USUS
Related business
Manufacturer
SpaceX/Seattle
Mission
Operational Commercial Communications
Bus & Motor
STARLINK, Unknown motor
Mass
297 kg wet, ~220 kg dry
Launch date (UTC)
2022-05-06 (4 years ago)
Launch vehicle
FALCON 9
Launch site
Air Force Eastern Test Range (AFETR)
Object type
Payload
Rocket body
Debris
Shape & HBR
Box + 1 Pan, 10.1 m
Radar Cross Section
13.562 m², Large (>1 m²)

Expand to show TLE details & history
Last TLE update: 13 hours ago

TLE from 13 hours ago
0 STARLINK-3857
1 52494U 22049AV  25346.96872439 -.00000123  00000-0  10385-4 0  9997
2 52494  53.2180  78.4283 0001212  96.0503 264.0627 15.08829323199306
Epoch: 2025-12-12T23:14Z
TLE epoch observation values (Epoch: 2025-12-12T23:14:57.787Z)
Latitude
-0.00004°
Longitude
7.78476°
Altitude
540.76 km
Speed
7.593 km/s
True Right ascension
05h 13m 42s
True Declination
0° 00' 00"
Sunlit
Object was in full shadow at epoch
Visualization orbit readout
Latitude
Unknown
Longitude
Unknown
Altitude
Unknown
Speed
Unknown
Apparent Right ascension
Unknown
Apparent Declination
Unknown
Sunlit
N/A
Visualization observer readout
Local Sidereal Time
11:00:56
Azimuth
Unknown
Elevation
Unknown
Doppler factor
Unknown
Orbital elements
Apogee altitude
540.859 km
Perigee altitude
539.182 km
Semi-major axis
6,918.158 km
Eccentricity
0.00012
Inclination
53.218°
RAAN
78.4283°
Arg. of periapsis
96.0503°
True anomaly
264.04889°
Mean anomaly
264.0627°
Eccentric anomaly
264.05579°
Mean motion
3.77188 °/min
Orbital period
95.44 mins
BSTAR
0.000010385
Loading maneuver chart data...
Computing Atmospheric mass density...
Loading historical data...
Loading historical data...
Loading historical data...
Loading historical data...
Loading historical data...
Loading historical data...
Loading historical data...

Documentation

Showing up to 5 results
|